Regional Weather Roundup
Issued by NWS

Home | Current Version | Previous Version | Graphics & Text | Print | Product List | Glossary On
Versions: 1 2 3 4 5 6 7 8 9 10 11 12 13 14 15 16 17 18 19 20 21 22 23 24 25 26 27 28 29 30 31 32 33 34 35 36 37 38 39 40 41 42 43 44 45 46 47 48
000
ASUS45 KCYS 012010
RWRWY

WYOMING REGIONAL WEATHER ROUNDUP
NATIONAL WEATHER SERVICE CHEYENNE WY
200 PM MDT TUE SEP 01 2015

NOTE:  "FAIR" INDICATES FEW OR NO CLOUDS BELOW 12,000 FEET
WITH NO SIGNIFICANT WEATHER AND/OR OBSTRUCTIONS TO VISIBILITY.

WYZ001-012100-
YELLOWSTONE NATIONAL PARK

CITY           SKY/WX    TMP DP  RH WIND       PRES   REMARKS
LK YELLOWSTONE   N/A     71  25  17 W10G26    30.18F
W YELLOWSTONE  NOT AVBL

$$
WYZ002>013-054>058-071-098>099-012100-
NORTHERN WYOMING

CITY           SKY/WX    TMP DP  RH WIND       PRES   REMARKS
JACKSON        FAIR      81  36  19 S16G26    30.07F
CODY           FAIR      84  30  14 SE12G17   29.92F
GREYBULL       FAIR      89  26  10 SE9       29.86F
WORLAND        FAIR      91  29  11 VRB6      29.87F
SHERIDAN       FAIR      91  27  10 E6        29.86F
BUFFALO        FAIR      88  28  11 N8        29.95F
GILLETTE       FAIR      87  29  12 W3        29.91F
HULETT         FAIR      86  32  14 NW6G16    29.92F
NEWCASTLE        N/A     86  32  14 W3        29.93F

$$
WYZ014>020-022>026-101>103-012100-
CENTRAL WYOMING

CITY           SKY/WX    TMP DP  RH WIND       PRES   REMARKS
BIG PINEY      FAIR      82  32  16 W16G22    30.13F
PINEDALE       FAIR      77  32  19 S7        30.14F
DUBOIS         FAIR      77  28  16 W24G31    30.10F
LANDER         FAIR      86  33  15 MISG      29.98F
RIVERTON       FAIR      83  37  19 E6        29.99F
CASPER         FAIR      87  26  11 W20G30    29.99F
DOUGLAS        FAIR      90  30  11 W13G26    29.99F

$$
WYZ021-027>030-104>119-012100-
SOUTHERN WYOMING

CITY           SKY/WX    TMP DP  RH WIND       PRES   REMARKS
EVANSTON       PTSUNNY   73  37  27 SE12      30.18R
KEMMERER       MOCLDY    75  32  20 W20G26    30.17S
FORT BRIDGER   CLEAR     82  32  16 W13G24    30.18F
ROCK SPRINGS   FAIR      80  37  21 SW13      30.14F
DIXON          FAIR      81  44  27 SW8       30.19F
RAWLINS        FAIR      81  35  19 VRB5G24   30.16F
SARATOGA       FAIR      79  36  21 W14G28    30.19F
LARAMIE        PTSUNNY   78  34  20 N13       30.19F
CHEYENNE       FAIR      84  37  18 NW13      30.11F
TORRINGTON     FAIR      90  37  15 VRB5      29.94S
PINE BLUFFS    FAIR      88  32  13 NW6G16    30.04F

$$



USA.gov is the U.S. government's official web portal to all federal, state and local government web resources and services.